Location: ?p Thanh B�nh
(16.5833°N, 107.5333°E)
Time: 05:42:12
(UTC+00:00)

CZ-4B R/B - Pass Details

Date: 29 October 2020
Orbit: 489 x 649 km, 97.9° (Epoch: 27 November)

Event Time Altitude Azimuth Distance (km) Brightness Sun altitude
Rises 22:06:56 0° 1° (N) 2,833 6.3 -10.1°
Reaches altitude 10° 22:09:08 10° 354° (N) 1,954 5.4 -9.6°
Maximum altitude 22:13:10 42° 283° (WNW) 885 3.4 -8.7°
Drops below altitude 10° 22:17:21 10° 212° (SSW) 2,019 5.5 -7.7°
Sets 22:19:40 0° 206° (SSW) 2,939 6.4 -7.2°
